Location: Vesunti
(61.5000°N, 22.8333°E)
Time: 22:19:42
(UTC+00:00)

Cosmos 1605 Rocket - Pass Details

Date: 17 February 2020
Orbit: 944 x 1007 km, 82.9° (Epoch: 05 April)

Event Time Altitude Azimuth Distance (km) Brightness Sun altitude
Rises 02:14:40 0° 344° (NNW) 3,723 7.2 -27.8°
Reaches altitude 10° 02:17:15 10° 347° (NNW) 2,762 6.5 -27.5°
Maximum altitude 02:23:34 70° 71° (ENE) 1,039 4.2 -26.9°
Drops below altitude 10° 02:29:46 10° 156° (SSE) 2,702 6.3 -26.2°
Sets 02:32:15 0° 159° (SSE) 3,637 7.0 -25.9°
